This is the latest recevied weather packets stored in our database for station/object N0HEQ. If no packets are shown the sender has not sent any weather packets the latest 10 day(s).
| Time | Temp. | Humidity | Pressure | Rain* | Wind** | Luminosity | Snow |
|---|---|---|---|---|---|---|---|
| 1777309848 | 2.78° C | 96% | 1016.2 hPa | 0 mm | - | 122 W/m² | - |
| 1777309546 | 2.78° C | 96% | 1016.2 hPa | 0 mm | - | 116 W/m² | - |
| 1777309242 | 2.78° C | 96% | 1016.5 hPa | 0 mm | - | 110 W/m² | - |
| 1777308941 | 2.22° C | 96% | 1016.6 hPa | 0 mm | - | 96 W/m² | - |
| 1777308636 | 2.22° C | 96% | 1016.8 hPa | 0 mm | - | 93 W/m² | - |
| 1777308332 | 2.78° C | 96% | 1016.2 hPa | 0 mm | - | 89 W/m² | - |
| 1777308027 | 2.78° C | 96% | 1016.6 hPa | 0 mm | - | 121 W/m² | - |
| 1777307726 | 2.78° C | 96% | 1016.3 hPa | 0 mm | - | 103 W/m² | - |
| 1777307422 | 2.78° C | 96% | 1016.3 hPa | 0 mm | - | 90 W/m² | - |
| 1777307120 | 2.78° C | 96% | 1016.5 hPa | 0 mm | - | 86 W/m² | - |
| 1777306817 | 2.22° C | 96% | 1016.2 hPa | 0 mm | - | 79 W/m² | - |
| 1777306514 | 2.78° C | 96% | 1016.2 hPa | 0 mm | - | 78 W/m² | - |
| 1777306209 | 2.78° C | 96% | 1016.1 hPa | 0 mm | - | 67 W/m² | - |
| 1777305904 | 2.22° C | 96% | 1016.2 hPa | 0 mm | - | 64 W/m² | - |
| 1777305601 | 2.78° C | 96% | 1016.2 hPa | 0 mm | - | 61 W/m² | - |
| 1777305297 | 2.22° C | 96% | 1015.9 hPa | 0 mm | - | 60 W/m² | - |
| 1777304996 | 2.22° C | 96% | 1016 hPa | 0 mm | - | 55 W/m² | - |
| 1777304692 | 2.78° C | 96% | 1016 hPa | 0 mm | - | 68 W/m² | - |
| 1777304390 | 2.78° C | 96% | 1015.7 hPa | 0 mm | - | 54 W/m² | - |
| 1777304087 | 2.22° C | 96% | 1015.6 hPa | 0 mm | - | 53 W/m² | - |
| 1777303784 | 2.78° C | 96% | 1015.6 hPa | 0 mm | - | 46 W/m² | - |
| 1777303481 | 2.78° C | 96% | 1015.4 hPa | 0 mm | - | 52 W/m² | - |
| 1777303178 | 2.78° C | 96% | 1015.3 hPa | 0 mm | - | 37 W/m² | - |
| 1777302877 | 2.22° C | 96% | 1015.3 hPa | 0 mm | - | 48 W/m² | - |
| 1777302573 | 2.22° C | 96% | 1015.5 hPa | 0 mm | - | 42 W/m² | - |
* Rain latest hour (hover to see other rain measurements)
** Current wind speed in m/s (hover to see current wind gust speed)